This demonstration page uses our WeatherBlox Daily Observations layout. Learn more.

Left ArrowRight Arrow

40.92945, -100.16068

Hourly Observations for September 24, 2020

Temp ( °F °C ) Dew Point ( °F °C ) Humidity (%) Winds ( mph kmh ) Pressure ( in mb ) Visibility ( mi km ) Precip ( " mm )
12:15 am 00:15 Clear 58 14.5 51 10.8 79 79 SE 5 7 29.87 1012 7 11 0.00 0.00
12:35 am 00:35 Clear 58 14.3 51 10.5 78 78 SE 3 6 29.86 1011 10 16 0.00 0.00
12:55 am 00:55 Clear 58 14.3 51 10.6 79 79 Calm 29.86 1011 10 16 0.00 0.00
1:15 am 01:15 Clear 57 13.7 51 10.7 82 82 Calm 29.87 1011 10 16 0.00 0.00
1:35 am 01:35 Clear 54 12.3 50 10.2 87 87 Calm 29.88 1012 10 16 0.00 0.00
1:55 am 01:55 Clear 54 12.1 51 10.3 89 89 N 3 6 29.88 1012 10 16 0.00 0.00
2:15 am 02:15 Clear 54 12.1 50 9.8 86 86 Calm 29.88 1012 10 16 0.00 0.00
2:35 am 02:35 Clear 52 11.3 49 9.4 88 88 WNW 3 6 29.88 1012 10 16 0.00 0.00
2:55 am 02:55 Clear 53 11.6 49 9.5 87 87 W 5 7 29.88 1012 10 16 0.00 0.00
3:15 am 03:15 Clear 53 11.9 49 9.2 84 84 W 6 9 29.86 1011 10 16 0.00 0.00
3:35 am 03:35 Clear 52 11.1 48 9 87 87 WNW 7 11 29.87 1012 10 16 0.00 0.00
3:55 am 03:55 Clear 53 11.7 48 9.1 84 84 WNW 7 11 29.87 1011 10 16 0.00 0.00
4:15 am 04:15 Clear 52 11.1 48 9 87 87 WNW 7 11 29.87 1012 10 16 0.00 0.00
4:35 am 04:35 Clear 53 11.7 49 9.3 85 85 WNW 5 7 29.87 1011 10 16 0.00 0.00
4:55 am 04:55 Clear 53 11.5 49 9.3 86 86 WNW 5 7 29.87 1011 10 16 0.00 0.00
5:15 am 05:15 Clear 53 11.5 48 9.1 85 85 NNW 9 15 29.88 1012 10 16 0.00 0.00
5:35 am 05:35 Clear 52 11.2 48 8.8 85 85 N 3 6 29.88 1012 10 16 0.00 0.00
5:55 am 05:55 Clear 51 10.5 47 8.5 88 88 W 6 9 29.89 1012 10 16 0.00 0.00
6:15 am 06:15 Clear 50 10.1 47 8.2 88 88 W 6 9 29.89 1012 10 16 0.00 0.00
6:35 am 06:35 Clear 50 10.2 47 8.3 88 88 W 7 11 29.89 1012 10 16 0.00 0.00
6:55 am 06:55 Clear 51 10.5 47 8.3 86 86 W 6 9 29.89 1012 10 16 0.00 0.00
7:15 am 07:15 Clear 50 10.1 47 8.2 88 88 WNW 6 9 29.90 1013 10 16 0.00 0.00
7:35 am 07:35 Sunny 50 10.2 47 8.1 87 87 WNW 6 9 29.90 1013 7 11 0.00 0.00
7:55 am 07:55 Sunny 50 10.2 47 8.2 88 88 WNW 6 9 29.90 1013 7 11 0.00 0.00
8:15 am 08:15 Sunny 52 11.1 47 8.5 84 84 WNW 8 13 29.90 1013 10 16 0.00 0.00
8:35 am 08:35 Sunny 54 12.2 48 9 81 81 WNW 7 11 29.90 1013 10 16 0.00 0.00
8:55 am 08:55 Sunny 56 13.1 49 9.7 80 80 WNW 6 9 29.89 1012 7 11 0.00 0.00
9:15 am 09:15 Hazy 58 14.5 51 10.5 77 77 NW 5 7 29.88 1012 5 8 0.00 0.00
9:35 am 09:35 Sunny 61 16.2 53 11.6 74 74 WNW 3 6 29.87 1011 7 11 0.00 0.00
9:55 am 09:55 Sunny 64 17.8 54 12.1 69 69 Calm 29.85 1011 10 16 0.00 0.00
10:15 am 10:15 Sunny 67 19.7 55 12.9 65 65 N 5 7 29.84 1011 10 16 0.00 0.00
10:35 am 10:35 Sunny 72 22.3 55 12.7 55 55 ENE 7 11 29.82 1010 10 16 0.00 0.00
10:55 am 10:55 Sunny 73 23 55 13 53 53 NE 6 9 29.82 1010 10 16 0.00 0.00
11:15 am 11:15 Sunny 76 24.2 55 12.8 49 49 NE 8 13 29.81 1009 10 16 0.00 0.00
11:35 am 11:35 Sunny 77 24.8 55 12.9 48 48 ENE 8 13 29.79 1009 10 16 0.00 0.00
11:55 am 11:55 Sunny 78 25.6 55 12.6 44 44 ENE 8 13 29.79 1009 10 16 0.00 0.00
12:15 pm 12:15 Sunny 80 26.4 55 12.5 42 42 ENE 7 11 29.77 1008 10 16 0.00 0.00
12:35 pm 12:35 Sunny 80 26.9 54 12.4 41 41 ENE 8 13 29.75 1008 10 16 0.00 0.00
12:55 pm 12:55 Sunny 81 27.2 54 12.1 39 39 E 8 13 29.75 1008 10 16 0.00 0.00
1:10 pm 13:10 Sunny 82 28 54 12.1 37 37 E 5 7 29.75 1007 10 16 0.00 0.00
1:35 pm 13:35 Sunny 83 28.4 55 12.8 38 38 NE 3 6 29.73 1007 10 16 0.00 0.00
1:55 pm 13:55 Sunny 83 28.6 55 12.6 37 37 NE 3 6 29.73 1007 10 16 0.00 0.00
2:15 pm 14:15 Sunny 84 28.9 54 12.1 35 35 Calm 29.72 1006 10 16 0.00 0.00
2:35 pm 14:35 Sunny 85 29.3 54 12 34 34 E 5 7 29.71 1006 10 16 0.00 0.00
2:55 pm 14:55 Sunny 85 29.6 53 11.8 33 33 E 5 7 29.70 1006 10 16 0.00 0.00
3:15 pm 15:15 Sunny 86 29.9 53 11.9 33 33 SE 3 6 29.70 1006 10 16 0.00 0.00
3:35 pm 15:35 Hazy 86 30 53 11.8 33 33 E 5 7 29.69 1005 5 8 0.00 0.00
3:55 pm 15:55 Sunny 86 30.1 53 11.7 32 32 ENE 5 7 29.68 1005 10 16 0.00 0.00
4:15 pm 16:15 Hazy 86 30.1 53 11.4 32 32 Calm 29.68 1005 2 3 0.00 0.00
4:35 pm 16:35 Mostly Cloudy with Haze 87 30.5 52 10.9 30 30 Calm 29.68 1005 2 3 0.00 0.00
4:55 pm 16:55 Sunny 87 30.7 51 10.3 28 28 Calm 29.66 1005 10 16 0.00 0.00
5:15 pm 17:15 Sunny 87 30.3 51 10.4 29 29 Calm 29.67 1005 10 16 0.00 0.00
5:35 pm 17:35 Sunny 87 30.7 50 9.9 28 28 SE 5 7 29.66 1005 10 16 0.00 0.00
5:55 pm 17:55 Sunny 87 30.5 53 11.5 31 31 SE 7 11 29.67 1005 10 16 0.00 0.00
6:15 pm 18:15 Sunny 85 29.3 52 11.3 33 33 SE 5 7 29.68 1005 10 16 0.00 0.00
6:35 pm 18:35 Sunny 82 27.9 53 11.5 36 36 SSE 3 6 29.68 1005 10 16 0.00 0.00
6:55 pm 18:55 Sunny 81 27 53 11.6 38 38 SE 6 9 29.68 1005 10 16 0.00 0.00
7:15 pm 19:15 Sunny 80 26.4 54 12.1 41 41 ESE 5 7 29.69 1005 10 16 0.00 0.00
7:35 pm 19:35 Clear 77 25.1 54 12.3 45 45 SE 7 11 29.70 1006 7 11 0.00 0.00
7:55 pm 19:55 Clear 76 24.6 55 12.8 48 48 ESE 7 11 29.69 1006 10 16 0.00 0.00
8:15 pm 20:15 Clear 76 24.3 55 12.9 49 49 SE 7 11 29.71 1006 10 16 0.00 0.00
8:35 pm 20:35 Clear 74 23.6 55 12.8 51 51 SE 7 11 29.71 1006 10 16 0.00 0.00
8:55 pm 20:55 Clear 73 22.7 55 13 54 54 SE 7 11 29.72 1006 10 16 0.00 0.00
9:15 pm 21:15 Clear 73 22.5 56 13.2 56 56 SE 7 11 29.72 1006 10 16 0.00 0.00
9:35 pm 21:35 Clear 71 21.9 56 13.1 58 58 SE 8 13 29.73 1007 10 16 0.00 0.00
9:55 pm 21:55 Clear 69 20.6 55 13 62 62 SE 6 9 29.74 1007 10 16 0.00 0.00
10:15 pm 22:15 Clear 71 21.4 55 13 59 59 SE 7 11 29.73 1007 10 16 0.00 0.00
10:35 pm 22:35 Clear 69 20.7 56 13.1 62 62 SE 5 7 29.74 1007 10 16 0.00 0.00
10:55 pm 22:55 Clear 65 18.3 55 12.7 70 70 SE 7 11 29.75 1007 10 16 0.00 0.00
11:15 pm 23:15 Clear 65 18.6 55 13 70 70 SE 6 9 29.74 1007 10 16 0.00 0.00
11:35 pm 23:35 Clear 66 19.1 56 13.1 68 68 SSE 8 13 29.73 1007 10 16 0.00 0.00
11:55 pm 23:55 Clear 64 17.6 55 12.7 73 73 SSE 7 11 29.74 1007 10 16 0.00 0.00

Powered by AerisWeather